, NM

(GMT )
Holloman AFB

Weather History for KHMN - March, 2014

Change the Weather History Date:

Wednesday, March 12, 2014

  Actual Average Record
Temperature  
Mean Temperature 49 °F -  
Max Temperature 59 °F 64 °F 78 °F (2005)
Min Temperature 40 °F 35 °F 24 °F (1998)
Degree Days  
Heating Degree Days 16    
Moisture  
Dew Point 18 °F    
Average Humidity 30    
Maximum Humidity 46    
Minimum Humidity 19    
Precipitation  
Precipitation 0.00 in - - ()
Sea Level Pressure  
Sea Level Pressure 30.13 in    
Wind  
Wind Speed 9 mph (SSE)    
Max Wind Speed 13 mph    
Max Gust Speed -    
Visibility 10 miles    
Events      
Averages and records for this station are not official NWS values.
T = Trace of Precipitation, MM = Missing Value Source: NWS Daily Summary

Daily Weather History Graph

Daily Weather History Graph

Search for Another Location

Airport or City:

Trip Planner

Search our weather history database for the weather conditions in past years. The results will help you decide how hot, cold, wet, or windy it might be!

Date:

Astronomy

Mar. 12, 2014 Rise Set
Actual Time 7:18 AM MDT 7:10 PM MDT
Civil Twilight 6:53 AM MDT 7:34 PM MDT
Nautical Twilight 6:25 AM MDT 8:03 PM MDT
Astronomical Twilight 5:56 AM MDT 8:32 PM MDT
Moon 3:52 PM MDT (3/12) 4:42 AM MDT (3/12)
Length of Visible Light 12h 40m
Length of Day
11h 51m
Waxing Gibbous, 86% of the Moon is Illuminated
Mar 12
Waxing Gibbous
Mar 16
Full
Mar 23
Last Quarter
Mar 30
New
Apr 7
First Quarter

Hourly Weather History & Observations

Time (MDT) Temp. Windchill Dew Point Humidity Pressure Visibility Wind Dir Wind Speed Gust Speed Precip Events Conditions
12:58 AM 49.6 °F - 15.4 °F 26% 29.87 in 10.0 mi NE 9.2 mph - N/A   Clear
1:58 AM 48.7 °F - 18.5 °F 30% 29.90 in 9.0 mi NE 3.5 mph - N/A   Clear
2:58 AM 50.2 °F - 13.8 °F 23% 29.94 in 10.0 mi ESE 11.5 mph - N/A   Clear
3:58 AM 48.0 °F - 21.7 °F 36% 29.96 in 8.0 mi ESE 12.7 mph - N/A   Clear
4:58 AM 45.9 °F 40.4 °F 23.0 °F 41% 30.01 in 10.0 mi SE 11.5 mph - N/A   Clear
5:58 AM 42.8 °F 37.5 °F 21.6 °F 43% 30.07 in 10.0 mi SE 9.2 mph - N/A   Clear
6:58 AM 41.5 °F 35.9 °F 21.2 °F 44% 30.13 in 10.0 mi SE 9.2 mph - N/A   Clear
7:58 AM 40.8 °F 35.0 °F 21.2 °F 46% 30.18 in 10.0 mi ESE 9.2 mph - N/A   Clear
8:58 AM 43.0 °F 36.8 °F 21.2 °F 42% 30.22 in 10.0 mi SE 11.5 mph - N/A   Clear
9:58 AM 46.4 °F 41.1 °F 21.7 °F 38% 30.25 in 10.0 mi SSE 11.5 mph - N/A   Clear
10:58 AM 50.4 °F - 20.8 °F 31% 30.26 in 10.0 mi South 9.2 mph - N/A   Clear
11:58 AM 52.2 °F - 21.0 °F 30% 30.25 in 10.0 mi SSW 8.1 mph - N/A   Clear
12:58 PM 53.4 °F - 19.9 °F 27% 30.23 in 10.0 mi West 6.9 mph - N/A   Clear
1:58 PM 55.0 °F - 19.2 °F 25% 30.19 in 10.0 mi Variable 2.3 mph - N/A   Clear
2:58 PM 56.3 °F - 18.5 °F 23% 30.13 in 10.0 mi Variable 5.8 mph - N/A   Clear
3:58 PM 58.3 °F - 16.3 °F 19% 30.12 in 10.0 mi WNW 3.5 mph - N/A   Clear
4:58 PM 58.6 °F - 16.7 °F 19% 30.11 in 10.0 mi Variable 6.9 mph - N/A   Clear
5:58 PM 57.0 °F - 16.5 °F 20% 30.13 in 10.0 mi South 10.4 mph - N/A   Clear
6:58 PM 55.0 °F - 15.8 °F 21% 30.15 in 10.0 mi South 10.4 mph - N/A   Clear
7:58 PM 51.6 °F - 15.4 °F 24% 30.17 in 10.0 mi SSW 10.4 mph - N/A   Clear
8:58 PM 49.3 °F - 15.1 °F 26% 30.19 in 10.0 mi SSW 9.2 mph - N/A   Clear
9:58 PM 46.6 °F - 16.2 °F 30% 30.19 in 10.0 mi South 6.9 mph - N/A   Clear
10:58 PM 44.8 °F 41.6 °F 15.4 °F 31% 30.19 in 10.0 mi SSW 5.8 mph - N/A   Clear
11:58 PM 43.3 °F 38.1 °F 15.4 °F 32% 30.19 in 10.0 mi South 9.2 mph - N/A   Clear